SCOUT G-1 R/B, 15938

Orbit data source: Space-Track

SCOUT G-1 R/B, 15938 is space debris in LEO originally from a launch on Sat, 03 Aug 1985 UTC launched from the Air Force Western Test Range (AFWTR). Debris objects in space refer to the collection of defunct objects orbiting the Earth. Examples of debris include non-operational satellites, rocket bodies, and fragments generated from explosions, collisions, or faulty payload assembly.

Loading next visibility...
Identifier
15938, 1985-066C
Orbit
LEO
Country
Flag of USUS
Related business
Manufacturer
Thiokol/TE
Mission
Spacecraft
Bus & Motor
STAR 20, Unknown motor
Mass
31 kg wet, 31 kg dry
Launch date (UTC)
1985-08-03 (41 years ago)
Launch vehicle
Unknown
Launch site
Air Force Western Test Range (AFWTR)
Object type
Payload
Rocket body
Debris
Shape & HBR
Unknown
Radar Cross Section
Medium (>0.1 m² and <1 m²)

Expand to show TLE details & history
Last TLE update: 2 days ago

TLE from 2 days ago
0 SCOUT G-1 R/B
1 15938U 85066C   26171.31375416  .00000049  00000-0  77662-4 0  9993
2 15938  90.1699  97.7096 0167348 298.4478  59.9891 13.35458941989113
Epoch: 2026-06-20T07:31Z
TLE epoch observation values (Epoch: 2026-06-20T07:31:48.359Z)
Latitude
Longitude
76.22794°
Altitude
1,067.948 km
Speed
7.348 km/s
True Right ascension
06h 30m 50s
True Declination
0° 00' 00"
Sunlit
Object was in daylight at epoch
Visualization orbit readout
Latitude
Unknown
Longitude
Unknown
Altitude
Unknown
Speed
Unknown
Apparent Right ascension
Unknown
Apparent Declination
Unknown
Sunlit
N/A
Visualization observer readout
Local Sidereal Time
23:08:35
Azimuth
Unknown
Elevation
Unknown
Doppler factor
Unknown
Orbital elements
Apogee altitude
1,248.848 km
Perigee altitude
997.778 km
Semi-major axis
7,501.45 km
Eccentricity
0.01673
Inclination
90.1699°
RAAN
97.7096°
Arg. of periapsis
298.4478°
True anomaly
61.66698°
Mean anomaly
59.9891°
Eccentric anomaly
60.8263°
Mean motion
3.34061 °/min
Orbital period
107.76 mins
BSTAR
0.000077662
Loading maneuver chart data...
Computing Atmospheric mass density...
Loading historical data...
Loading historical data...
Loading historical data...
Loading historical data...
Loading historical data...
Loading historical data...
Loading historical data...

Documentation

Showing up to 5 results
|